* Astronomy

Members Login
Username 
 
Password 
    Remember Me  
Post Info TOPIC: Asteroid 2012 AQ


L

Posts: 131433
Date:
Asteroid 2012 AQ
Permalink  
 


Orbital elements:
2012 AQ                                                  Earth MOID = 0.0017 AU
Epoch 2012 Mar. 14.0 TT = JDT 2456000.5                 MPC
M 103.15454              (2000.0)            P               Q
n   0.88941533     Peri.  316.03755     +0.59574980     -0.80164861
a   1.0708607      Node    97.33533     +0.74996783     +0.53321424
e   0.1038673      Incl.    2.85572     +0.28745509     +0.27026299
P   1.11           H   30.7           G   0.15           U   5

MPEC 2012 - A15



__________________
Page 1 of 1  sorted by
 
Quick Reply

Please log in to post quick replies.



Create your own FREE Forum
Report Abuse
Powered by ActiveBoard